Terug naar catalogus

STARLINK-34473

ActiefCommunicatieVLEO
NORAD 64354·PAYLOAD·🇺🇸 United States

Gelanceerd Jun 13, 2025 vanaf Vandenberg Space Force Base

Loading…

Volgende Passages (komende 24 uur)

TLE

VersSource: CelesTrak SupGP

Epoch: Sep 14, 2026, 22:52 UTC

1 64354C 25126L   26257.95326389  .00074132  00000+0  25790-2 0  2573
2 64354  70.0002 275.5701 0003453 266.4262 106.6683 15.29538720    16

Volg STARLINK-34473 in realtime met AllMySat

Download on the App Store